DateTimeUTC,F1_A11,F1_S11,BsB_S11,BsG_S11,BsR_S11,BbsB_S11,BbsG_S11,BbsR_S11,BaB_A11,BaG_A11,BaR_A11,Tu_S11,T_S11,Uu_S11,U_S11,P_S11,T1_A11
2021-04-17T01:00:00Z,00000200,21000000,,,,,,,0000.06,-000.15,-000.21,17.4,24.8,,00.0,0648.6,31.0
2021-04-17T01:01:00Z,00000200,21000000,,,,,,,-000.05,-000.07,0000.08,17.4,24.8,,00.0,0648.6,31.0
2021-04-17T01:02:00Z,00000200,21000000,,,,,,,0000.10,0000.03,-000.09,17.4,24.8,,00.0,0648.6,31.0
2021-04-17T01:03:00Z,00000200,61000000,,,,,,,-000.57,-000.39,-000.26,17.4,24.8,,00.0,0648.6,31.0
2021-04-17T01:04:00Z,00000200,41000000,0000.88,0000.79,0000.37,0000.30,0000.00,0000.25,0000.59,0000.02,0000.09,17.4,24.5,,00.0,0649.5,31.0
2021-04-17T01:05:00Z,00000200,01000000,0000.24,0000.46,0000.51,0000.08,-000.03,0000.27,0000.38,0000.61,0000.68,17.4,24.5,,00.0,0649.6,30.9
2021-04-17T01:06:00Z,00000200,01000000,0000.59,0000.41,0000.46,0000.41,-000.19,0000.14,0000.06,0000.41,0000.14,17.5,24.5,,00.0,0649.6,31.0
2021-04-17T01:07:00Z,00000200,01000000,0000.67,0000.84,0000.44,0000.32,0000.17,0000.36,0000.07,0000.06,0000.05,17.5,24.5,,00.0,0649.6,31.0
2021-04-17T01:08:00Z,00000200,01000000,0000.89,0000.16,0000.30,-000.03,0000.40,0000.30,0000.11,0000.54,0000.24,17.6,24.5,,00.0,0649.6,31.0
2021-04-17T01:09:00Z,00000200,01000000,0000.61,0000.51,0000.19,-000.32,0000.20,0000.31,0000.19,-000.23,-000.07,17.7,24.6,,00.0,0649.5,31.1
2021-04-17T01:10:00Z,00000200,01000000,0000.40,0000.40,0000.19,0000.28,0000.22,0000.38,0000.13,0000.00,0000.36,17.7,24.6,,00.0,0649.5,31.0
2021-04-17T01:11:00Z,00000200,01000000,0000.04,0000.46,0000.28,-000.18,0000.15,0000.34,0000.02,0000.19,-000.22,17.8,24.6,,00.0,0649.4,31.0
2021-04-17T01:12:00Z,00000200,01000000,0001.09,0000.35,0000.39,-000.22,0000.01,0000.37,0000.22,0000.00,0000.14,17.7,24.6,,00.0,0649.3,31.0
2021-04-17T01:13:00Z,00000200,01000000,0000.80,0000.29,-000.09,0000.64,-000.04,-000.04,0000.15,0000.59,0000.26,17.6,24.5,,00.0,0649.2,31.0
2021-04-17T01:14:00Z,00000200,01000000,0000.87,0000.19,0000.55,0000.36,-000.11,0000.08,0000.00,-000.03,0000.08,17.6,24.5,,00.0,0649.1,31.0
2021-04-17T01:15:00Z,00000200,01000000,0000.44,0000.93,0000.12,0000.16,0000.43,0000.04,0000.51,0000.26,0000.29,17.5,24.5,,00.0,0649.0,31.0
2021-04-17T01:16:00Z,00000200,01000000,0001.11,0000.56,0000.25,0000.44,0000.06,0000.21,0000.06,0000.19,-000.02,17.5,24.5,,00.0,0649.0,31.0
2021-04-17T01:17:00Z,00000200,01000000,0001.03,0000.47,0000.46,0000.30,0000.04,0000.39,0000.33,0000.03,0000.13,17.4,24.5,,00.0,0648.9,31.0
2021-04-17T01:18:00Z,00000200,01000000,0000.18,0000.29,0000.44,0000.35,0000.14,0000.49,-000.52,-000.32,-000.15,17.3,24.4,,00.0,0648.9,30.9
2021-04-17T01:19:00Z,00000200,01000000,0000.75,0000.43,0000.52,0000.10,0000.10,0000.33,0000.81,0000.23,0000.32,17.3,24.4,,00.0,0648.7,30.9
2021-04-17T01:20:00Z,00000200,01000000,0000.94,0000.45,0000.32,0000.48,0000.44,0000.46,0000.10,0000.37,0000.36,17.4,24.4,,00.0,0648.7,30.9
2021-04-17T01:21:00Z,00000200,01000000,0000.51,0000.49,0000.36,0000.41,0000.24,0000.42,-000.09,0000.16,-000.04,17.4,24.4,,00.0,0648.7,31.0
2021-04-17T01:22:00Z,00000200,01000000,0000.06,0000.39,0000.20,-000.06,0000.14,0000.32,0000.85,0000.67,0000.11,17.5,24.4,,00.0,0648.6,31.0
2021-04-17T01:23:00Z,00000200,01000000,0000.08,0000.29,0000.49,-000.30,0000.20,0000.54,-000.25,-000.15,0000.58,17.5,24.4,,00.0,0648.6,31.0
2021-04-17T01:24:00Z,00000200,01000000,0000.81,0000.58,0000.35,0000.09,0000.15,0000.46,0000.24,0000.35,-000.14,17.6,24.5,,00.0,0648.4,31.0
2021-04-17T01:25:00Z,00000200,01000000,0000.81,0000.59,0000.39,0000.39,-000.00,0000.26,0000.15,-000.18,0000.38,17.7,24.5,,00.0,0648.5,31.0
2021-04-17T01:26:00Z,00000200,01000000,0000.88,0000.40,0000.08,0000.04,0000.28,-000.03,0000.02,0000.14,-000.19,17.7,24.5,,00.0,0648.5,31.0
2021-04-17T01:27:00Z,00000200,01000000,0000.62,0000.00,0000.60,0000.02,-000.10,0000.31,0000.31,0000.51,-000.03,17.7,24.5,,00.0,0648.5,31.0
2021-04-17T01:28:00Z,00000200,01000000,0000.51,0000.41,0000.36,-000.12,0000.17,0000.60,0000.30,-000.01,0000.22,17.7,24.5,,00.0,0648.6,31.0
2021-04-17T01:29:00Z,00000200,01000000,0000.98,0000.54,0000.08,-000.10,0000.13,0000.08,-000.21,0000.22,0000.18,17.6,24.5,,00.0,0648.6,31.0
2021-04-17T01:30:00Z,00000200,01000000,0000.43,0000.40,0000.41,0000.27,0000.08,0000.30,0000.40,-000.02,-000.12,17.5,24.5,,00.0,0648.6,31.0
2021-04-17T01:31:00Z,00000200,01000000,0000.64,0000.55,0000.45,-000.03,-000.03,0000.17,-000.38,0000.04,0000.26,17.5,24.4,,00.0,0648.6,31.0
2021-04-17T01:32:00Z,00000200,01000000,0000.75,0000.42,0000.49,0000.25,0000.14,0000.44,0000.82,0000.16,0000.07,17.4,24.4,,00.0,0648.7,30.9
2021-04-17T01:33:00Z,00000200,01000000,0000.89,0000.43,0000.43,0000.49,0000.13,0000.26,-000.55,-000.14,0000.16,17.3,24.4,,00.0,0648.9,30.9
2021-04-17T01:34:00Z,00000200,01000000,0000.20,0000.35,0000.53,0000.51,0000.05,0000.30,0000.38,0000.14,-000.05,17.3,24.3,,00.0,0649.0,30.9
2021-04-17T01:35:00Z,00000200,01000000,0000.75,0000.48,0000.47,-000.13,0000.07,0000.17,0000.28,0000.44,0000.35,17.3,24.3,,00.0,0649.1,30.9
2021-04-17T01:36:00Z,00000200,01000000,0001.02,0000.80,0000.59,0000.06,0000.25,0000.39,0000.38,0000.40,0000.38,17.4,24.3,,00.0,0649.3,31.0
2021-04-17T01:37:00Z,00000200,01000000,0000.70,0000.41,0000.53,0000.14,0000.25,0000.20,0000.44,0000.31,-000.11,17.5,24.3,,00.0,0649.4,31.0
2021-04-17T01:38:00Z,00000200,01000000,0000.74,0000.45,0000.42,0000.43,0000.18,0000.28,-000.23,0000.06,0000.28,17.5,24.4,,00.0,0649.6,31.0
2021-04-17T01:39:00Z,00000200,01000000,0000.72,0000.64,0000.34,0000.55,0000.09,0000.27,0000.57,0000.13,0000.11,17.6,24.4,,00.0,0649.6,31.0
2021-04-17T01:40:00Z,00000200,01000000,0000.86,0000.41,0000.71,0000.07,0000.08,0000.41,0000.00,0000.44,0000.37,17.6,24.4,,00.0,0649.7,31.0
2021-04-17T01:41:00Z,00000200,01000000,0000.61,0000.47,0000.43,-000.01,0000.05,0000.14,0000.30,0000.19,0000.20,17.7,24.5,,00.0,0649.7,31.0
2021-04-17T01:42:00Z,00000200,01000000,0000.85,0000.50,0000.26,0000.30,0000.18,-000.02,-000.38,-000.35,-000.15,17.8,24.5,,00.0,0649.7,31.0
2021-04-17T01:43:00Z,00000200,01000000,0001.07,0000.76,0000.45,0000.03,0000.13,0000.16,0000.20,-000.24,0000.04,17.8,24.5,,00.0,0649.7,31.0
2021-04-17T01:44:00Z,00000200,01000000,0000.92,0000.02,0000.56,0000.28,0000.16,0000.09,0000.34,0000.58,0000.19,17.8,24.5,,00.0,0649.6,31.0
2021-04-17T01:45:00Z,00000200,01000000,0001.04,0000.44,0000.10,-000.02,0000.08,-000.02,0000.37,0000.09,-000.20,17.7,24.5,,00.0,0649.4,31.0
2021-04-17T01:46:00Z,00000200,01000000,0000.92,0000.47,0000.08,0000.69,-000.06,0000.24,0000.20,0000.27,0000.48,17.6,24.5,,00.0,0649.2,31.0
2021-04-17T01:47:00Z,00000200,01000000,0000.29,0000.66,0000.43,0000.49,-000.12,0000.54,-000.03,0000.21,0000.03,17.6,24.4,,00.0,0649.1,31.0
2021-04-17T01:48:00Z,00000200,01000000,0000.80,0000.64,0000.26,-000.15,0000.11,0000.08,0000.29,-000.45,0000.21,17.5,24.4,,00.0,0649.0,31.0
2021-04-17T01:49:00Z,00000200,01000000,0000.27,0000.21,0000.33,-000.02,-000.15,0000.01,0000.12,0000.58,-000.22,17.5,24.4,,00.0,0649.0,31.0
2021-04-17T01:50:00Z,00000200,01000000,0000.56,0000.56,0000.43,0000.19,0000.11,0000.55,0000.18,0000.55,0000.85,17.5,24.4,,00.0,0648.9,31.0
2021-04-17T01:51:00Z,00000200,01000000,0000.72,0000.30,0000.32,0000.00,0000.05,0000.69,0000.45,-000.16,-000.09,17.5,24.4,,00.0,0648.8,31.0
2021-04-17T01:52:00Z,00000200,01000000,0000.43,0000.55,0000.42,-000.31,0000.06,0000.16,0000.53,0000.78,0000.72,17.6,24.4,,00.0,0648.8,31.0
2021-04-17T01:53:00Z,00000200,01000000,0001.09,0000.32,0000.38,0000.00,0000.04,0000.19,0000.04,-000.24,-000.13,17.7,24.5,,00.0,0648.9,31.0
2021-04-17T01:54:00Z,00000200,01000000,0001.20,0000.47,0000.33,0000.20,0000.01,0000.17,-000.09,0000.61,0000.62,17.7,24.5,,00.0,0649.1,31.0
2021-04-17T01:55:00Z,00000200,01000000,0000.68,0000.41,0000.39,0000.08,-000.04,0000.25,0000.05,-000.00,-000.73,17.8,24.5,,00.0,0649.1,31.0
2021-04-17T01:56:00Z,00000200,01000000,0000.75,0000.35,0000.29,0000.50,0000.30,0000.07,0000.44,0000.42,0000.57,17.8,24.5,,00.0,0649.2,31.0
2021-04-17T01:57:00Z,00000200,41000000,,,,,,,0001.19,0000.71,0000.30,17.8,24.6,,00.0,0649.2,31.0
2021-04-17T01:58:00Z,00000200,61000000,,,,,,,-000.82,-000.44,-000.16,17.5,24.7,,00.0,0648.5,31.0
2021-04-17T01:59:00Z,00000200,21000000,,,,,,,0000.19,-000.77,-000.18,17.4,24.8,,00.0,0648.4,31.0
